ONEWEB-0135 (47281 NORAD) Tracking and Keplerian Element Data

This shows tracking and keplerian element data for the satellite.

Feedback or suggestion? Click here.




ElementValue
Catalog47281
NameONEWEB-0135
Epoch Orbit175
Epoch Day99.91667824
Epoch Year2021
RAAN7.2611
Inclination87.9621
Eccentricity0.0001617
Argument of Perigee89.0983
Mean Anonmoly156.5203
Mean Motion13.28464216
Decay Rate-0.00039642
L11 47281U 20100Z 21099.91667824 -.00039642 00000-0 -87333-1 0 9990
L22 47281 87.9621 7.2611 0001617 89.0983 156.5203 13.28464216 1758

Live tracking and technical data element details for ONEWEB-0135 (NORAD 47281). ONEWEB-0135 can be tracked NOW for your location showing map with azimuth and elevation plus other details from your city location.

Track the satellite on the map from your city or location and see movement details for azimuth, elevation, latitude, longitude, range, height, and movement on the map or in text.







IsCatalogInMostPopularTable: catalog: 47281, numindb: 36
Update: records affected: 1



GetName: 47281 ONEWEB-0135

Hit Count: updated at: Sat, 10 Apr 2021 19:22:13 GMT